Location: Saint-Usage
(47.1052°N, 5.2587°E)
Time: 09:44:17
(UTC+01:00)

NOAA 19 - Pass Details

Date: 03 December 2021
Orbit: 841 x 860 km, 99.2° (Epoch: 26 January)

Event Time Altitude Azimuth Distance (km) Brightness Sun altitude
Rises 19:45:21 0° 180° (S) 3,382 8.4 -28.9°
Reaches altitude 10° 19:47:47 10° 186° (S) 2,452 7.7 -29.3°
Maximum altitude 19:53:02 48° 260° (W) 1,094 6.0 -30.2°
Drops below altitude 10° 19:58:19 10° 335° (NNW) 2,476 7.9 -31.1°
Sets 20:00:48 0° 341° (NNW) 3,418 8.6 -31.5°
